星链-33967 (STARLINK-33967)

导读

STARLINK-33967是美国于2025年5月16日发射的星链系列卫星,归属于SpaceX公司的星链星座项目。星链项目旨在构建全球卫星互联网星座,为全球范围提供高速低延迟的宽带网络服务,该卫星的发射进一步扩充了星链星座的在轨规模,推进项目全球组网进程。

基本信息
目录编号:
64027
目录名称:
STARLINK-33967
国际标识:
2025-102F
轨道中心:
EARTH
卫星名称:
星链-33967
卫星全名:
星链-33967 (STARLINK-33967)
卫星状态:
在轨 (已飞行394 天)
发射日期:
2025-05-16 UTC
国别 :
美国 (US)
星等 :
--
轨道信息
数据来源 国际轨道数据
星历时间: 2026-06-13T23:12:08+0800
12小时前
查看轨道信息
半长轴: 6950.181km
偏心率: 0.0003452
轨道倾角: 70.000°
近地点辐角 268.527°
升交点赤经 232.542°
平近点角 91.550°
近地点: 569.644km
远地点: 574.444km
周期: 96.107分钟
每日圈数: 14.983341
详细信息
固有亮度:
5
最大亮度:
2.5
卫星平台:
Starlink V1.0
覆盖范围:
全球
运营商:
太空探索技术公司
运营商所在国:
美国
制造商(研发单位):
太空探索技术公司
制造商所在国:
美国
使用方式:
暂无
卫星简介
Starlink 计划是 SpaceX 推出的全球卫星互联网项目,通过发射低轨道卫星,为全球尤其是偏远地区提供高速、低延迟的互联网服务。自 2019 年起,Starlink 已部署数千颗卫星,旨在缩小全球数字鸿沟,推动互联网普及。该项目还为军事、航空等行业提供通信支持,带来广泛经济效益。
2D轨道图
3D轨道图
轨道高度分析图
轨道倾角分析图
轨道综合分析图
查看轨道综合分析图